This demonstration page uses our WeatherBlox Daily Observations layout. Learn more.

Left ArrowRight Arrow

53.62937, 11.41316

Hourly Observations for September 16, 2021

Temp ( °F °C ) Dew Point ( °F °C ) Humidity (%) Winds ( mph kmh ) Pressure ( in mb ) Visibility ( mi km ) Precip ( " mm )
6:20 am 06:20 Mostly Cloudy 59 15 57 14 94 94 SSW 13 20 29.83 1010 30 48 N/A
7:20 am 07:20 Mostly Cloudy 59 15 57 14 94 94 SSW 9 15 29.83 1010 30 48 N/A
7:50 am 07:50 Mostly Cloudy 59 15 55 13 88 88 SSW 8 13 29.83 1010 30 48 N/A
8:20 am 08:20 Mostly Cloudy with Drizzle 59 15 57 14 94 94 SSW 10 17 29.85 1011 30 48 N/A
8:50 am 08:50 Mostly Cloudy 59 15 57 14 94 94 S 10 17 29.85 1011 30 48 N/A
9:20 am 09:20 Mostly Cloudy 59 15 57 14 94 94 SSW 10 17 29.85 1011 30 48 N/A
9:50 am 09:50 Mostly Cloudy with Light Rain 59 15 57 14 94 94 S 9 15 29.85 1011 2 4 N/A
10:20 am 10:20 Mostly Cloudy 59 15 57 14 94 94 S 9 15 29.85 1011 30 48 N/A
10:50 am 10:50 Mostly Cloudy 61 16 57 14 88 88 S 9 15 29.85 1011 30 48 N/A
11:20 am 11:20 Mostly Cloudy 61 16 57 14 88 88 SSW 12 19 29.85 1011 30 48 N/A
11:50 am 11:50 Mostly Cloudy 61 16 57 14 88 88 SSW 10 17 29.85 1011 30 48 N/A
12:20 pm 12:20 Mostly Cloudy 63 17 59 15 88 88 SSW 9 15 29.85 1011 30 48 N/A
12:50 pm 12:50 Mostly Cloudy 64 18 57 14 78 78 SSW 14 22 29.85 1011 30 48 N/A
1:20 pm 13:20 Mostly Cloudy with Light Showers 63 17 59 15 88 88 SW 12 19 29.85 1011 6 9 N/A
1:50 pm 13:50 Partly Cloudy 63 17 59 15 88 88 SW 14 22 29.85 1011 30 48 N/A
2:20 pm 14:20 Mostly Cloudy with Drizzle 64 18 59 15 83 83 SW 14 22 29.85 1011 3 5 N/A
2:50 pm 14:50 Mostly Cloudy 64 18 59 15 83 83 SW 15 24 29.85 1011 30 48 N/A
3:20 pm 15:20 Mostly Cloudy 64 18 57 14 78 78 SW 15 24 29.85 1011 30 48 N/A
3:50 pm 15:50 Mostly Cloudy with Drizzle 64 18 57 14 78 78 SW 12 19 29.85 1011 30 48 N/A
4:20 pm 16:20 Mostly Cloudy 63 17 57 14 83 83 SW 16 26 29.85 1011 30 48 N/A
4:50 pm 16:50 Mostly Cloudy 63 17 57 14 83 83 SW 15 24 29.85 1011 30 48 N/A
5:20 pm 17:20 Mostly Cloudy 63 17 57 14 83 83 SW 12 19 29.85 1011 30 48 N/A
5:50 pm 17:50 Mostly Cloudy 63 17 59 15 88 88 SW 14 22 29.85 1011 30 48 N/A
6:20 pm 18:20 Mostly Cloudy 61 16 59 15 94 94 SW 10 17 29.85 1011 30 48 N/A
6:50 pm 18:50 Mostly Cloudy with Light Rain 61 16 59 15 94 94 SW 7 11 29.85 1011 30 48 N/A
7:20 pm 19:20 Mostly Cloudy 61 16 59 15 94 94 SW 7 11 29.85 1011 30 48 N/A
7:50 pm 19:50 Mostly Cloudy 61 16 59 15 94 94 SW 12 19 29.85 1011 30 48 N/A
8:20 pm 20:20 Mostly Cloudy 61 16 59 15 94 94 SW 9 15 29.85 1011 30 48 N/A
8:50 pm 20:50 Mostly Cloudy 61 16 59 15 94 94 SW 12 19 29.85 1011 30 48 N/A
9:20 pm 21:20 Mostly Cloudy with Drizzle 61 16 59 15 94 94 SW 8 13 29.85 1011 30 48 N/A
9:50 pm 21:50 Mostly Cloudy 61 16 59 15 94 94 SW 8 13 29.85 1011 30 48 N/A

Powered by AerisWeather